Regional Weather Roundup
Issued by NWS

Home | Current Version | Previous Version | Text Only | Print | Product List | Glossary Off
Versions: 1 2 3 4 5 6 7 8 9 10 11 12 13 14 15 16 17 18 19 20 21 22 23 24 25 26 27 28 29 30 31 32 33 34 35 36 37 38 39 40 41 42 43 44 45 46 47 48 49 50

000
ASUS43 KIND 301309
RWRIN

WEATHER ROUNDUP FOR INDIANA
NATIONAL WEATHER SERVICE INDIANAPOLIS IN
900 AM EDT THU OCT 30 2014

NOTE: "FAIR" INDICATES FEW OR NO CLOUDS BELOW 12,000 FEET WITH NO
SIGNIFICANT WEATHER AND/OR OBSTRUCTIONS TO VISIBILITY.

* - STATION DOES NOT REPORT WEATHER SUCH AS PRECIPITATION OR FOG.

+ - STATION NOT QUALITY CONTROLLED BY THE NATIONAL WEATHER SERVICE.
    USE DATA WITH CAUTION...ESPECIALLY DEWPOINT AND RELATIVE
    HUMIDITY OBSERVATIONS.

INZ001>003-010>013-019-020-301400-
NORTHWEST INDIANA

CITY           SKY/WX    TMP DP  RH WIND       PRES   REMARKS
GARY /AIRPORT/ MOCLDY    36  34  93 SW7       30.15S
KNOX *+        MOCLDY    39  33  78 SW3       30.15R
LA PORTE +     MOCLDY    41  35  79 W5        30.15R
MICHIGAN CITY+ PTCLDY    37  32  81 CALM      30.15R
MONTICELLO +   CLEAR     32  32  99 CALM      30.16R
RENSSELAER +   PTCLDY    32  32 100 CALM      30.16S
VALPARAISO     CLEAR     35  32  88 CALM      30.16R

$$

LMZ046-743>745-301400-
SOUTHERN LAKE MICHIGAN

STATION/POSITION TIME  TEMP WIND        PRES
                       AIR  DIR/SP/G
                 (UTC) (F)  (DEG/KT/KT) (MB)
MICHIGAN CITY    1300   42  180/  9/ 10   N/A

$$

INZ004-005-014>016-021>024-301400-
NORTH CENTRAL INDIANA

CITY           SKY/WX    TMP DP  RH WIND       PRES   REMARKS
ELKHART        CLOUDY    43  37  81 SW5       30.14S
GOSHEN         CLOUDY    43  37  79 SW6       30.14R
LOGANSPORT +   CLOUDY    39  34  81 SW5       30.16S
PERU/GRISSOM   CLOUDY    42  42 100 SW2       30.16R
ROCHESTER +    CLOUDY    45  37  76 SW3       30.15S
SOUTH BEND     CLOUDY    44  36  73 SW7       30.15R
WARSAW +       CLOUDY    43  36  75 W5        30.14S

$$

INZ006>009-017-018-025>027-301400-
NORTHEAST INDIANA

CITY           SKY/WX    TMP DP  RH WIND       PRES   REMARKS
ANGOLA *+      CLOUDY    43  39  87 CALM      30.14R
AUBURN +       CLOUDY    43  36  75 CALM      30.16R
FORT WAYNE     CLOUDY    43  37  79 SW3       30.16R
HUNTINGTON +   CLOUDY   N/A N/A N/A CALM      30.15S

$$

INZ028-029-035-036-043>045-051>053-301400-
WEST CENTRAL INDIANA

CITY           SKY/WX    TMP DP  RH WIND       PRES   REMARKS
GREENCASTLE +  CLEAR     32  32 100 CALM      30.18R
LAFAYETTE      CLEAR     32  32 100 CALM      30.18R FOG
TERRE HAUTE    CLEAR     32  32 100 CALM      30.18S

$$

INZ030>032-037>040-046>048-054>057-064-065-301400-
CENTRAL INDIANA

CITY           SKY/WX    TMP DP  RH WIND       PRES   REMARKS
ANDERSON       CLOUDY    41  36  81 CALM      30.18
CP ATTERBURY + CLEAR     32  32 100 CALM      30.18S
COLUMBUS       CLEAR     34  34 100 CALM      30.19R
FRANKFORT +    CLEAR    N/A N/A N/A CALM      30.18R
INDIANAPOLIS   PTCLDY    37  31  78 CALM      30.17R
-EAGLE CREEK   CLEAR     36  33  89 CALM      30.17R
KOKOMO *+      CLOUDY    43  36  75 CALM      30.17S
MARION +       CLOUDY    42  36  79 CALM      30.17S
MT COMFORT *+  PTCLDY    32 N/A N/A CALM      30.17S
SHELBYVILLE    CLEAR     36  32  85 CALM      30.17R
ZIONSVILLE +   CLEAR     32  30  92 CALM      30.18R

$$

INZ033-034-041-042-049-050-058-059-301400-
EAST CENTRAL INDIANA

CITY           SKY/WX    TMP DP  RH WIND       PRES   REMARKS
MUNCIE         CLOUDY    43  37  79 W3        30.17R

$$

INZ060-061-067>069-081>083-085>088-301400-
SOUTHWEST INDIANA

CITY           SKY/WX    TMP DP  RH WIND       PRES   REMARKS
EVANSVILLE     CLEAR     38  36  92 CALM      30.19R
HUNTINGBURG *+ CLEAR     36  32  87 CALM      30.19R
WASHINGTON +   CLEAR     34  34 100 CALM      30.18S FOG

$$

INZ062-063-066-070>080-084-089>092-301400-
SOUTH CENTRAL AND SOUTHEAST INDIANA

CITY           SKY/WX    TMP DP  RH WIND       PRES   REMARKS
BEDFORD +      CLEAR     34  32  93 CALM      30.17S
BLOOMINGTON    CLEAR     33  32  96 CALM      30.18R

$$




USA.gov is the U.S. government's official web portal to all federal, state and local government web resources and services.